Tracking 29487 objects as of 12-Sep-2024
HD Live streaming from Space Station
objects crossing your sky now

FENGYUN 1C DEB

Track FENGYUN 1C DEB now!
10-day predictions


NORAD ID: 31680
Int'l Code: 1999-025CCN
Perigee: 495.8 km
Apogee: 667.4 km
Inclination: 99.8 °
Period: 96.2 minutes
Semi major axis: 6952 km
RCS: 0.0075 m2 (small)
Launch date: May 10, 1999
Source: People's Republic of China (PRC)
Launch site: Taiyaun Space Center, China (TSC)

Note: This is SATELLITE DEBRIS
Your satellite tracking list
Your tracking list is empty




NASA's NSSDC Master Catalog

Two Line Element Set (TLE):
1 31680U 99025CCN 24254.64785117  .00048691  00000-0  35512-2 0  9995
2 31680  99.8467 225.3654 0123398 322.6836  36.5853 14.97560141932749
Source of the keplerian elements: AFSPC